Time,TemperatureF,DewpointF,PressureIn,WindDirection,WindDirectionDegrees,WindSpeedMPH,WindSpeedGustMPH,Humidity,HourlyPrecipIn,Conditions,Clouds,dailyrainin,SoftwareType,DateUTC
2013-02-13 00:11:00,48.1,38.0,30.33,NE,55,0.0,-999.0,69,-99.99,,,0.00,weatherlink.com 1.10,2013-02-13 08:11:00,
2013-02-13 00:26:00,47.8,38.0,30.33,NE,55,0.0,-999.0,70,-99.99,,,0.00,weatherlink.com 1.10,2013-02-13 08:26:00,
2013-02-13 00:41:00,47.4,38.0,30.32,NE,55,0.0,-999.0,70,-99.99,,,0.00,weatherlink.com 1.10,2013-02-13 08:41:00,
2013-02-13 00:56:00,47.4,39.0,30.32,NE,55,0.0,-999.0,72,-99.99,,,0.00,weatherlink.com 1.10,2013-02-13 08:56:00,
2013-02-13 01:11:00,47.1,38.0,30.32,NE,55,0.0,-999.0,71,-99.99,,,0.00,weatherlink.com 1.10,2013-02-13 09:11:00,
2013-02-13 01:26:00,46.9,37.0,30.32,NE,55,0.0,-999.0,68,-99.99,,,0.00,weatherlink.com 1.10,2013-02-13 09:26:00,
2013-02-13 01:41:00,46.8,37.0,30.33,NE,55,0.0,-999.0,69,-99.99,,,0.00,weatherlink.com 1.10,2013-02-13 09:41:00,
2013-02-13 01:56:00,46.5,37.0,30.33,NE,55,0.0,-999.0,70,-99.99,,,0.00,weatherlink.com 1.10,2013-02-13 09:56:00,
2013-02-13 02:11:00,46.1,38.0,30.33,NE,55,0.0,-999.0,73,-99.99,,,0.00,weatherlink.com 1.10,2013-02-13 10:11:00,
2013-02-13 02:26:00,46.3,38.0,30.32,NE,55,0.0,-999.0,73,-99.99,,,0.00,weatherlink.com 1.10,2013-02-13 10:26:00,
2013-02-13 02:41:00,46.0,37.0,30.32,NE,55,0.0,-999.0,72,-99.99,,,0.00,weatherlink.com 1.10,2013-02-13 10:41:00,
2013-02-13 02:56:00,45.5,38.0,30.32,NE,55,0.0,-999.0,74,-99.99,,,0.00,weatherlink.com 1.10,2013-02-13 10:56:00,
2013-02-13 03:11:00,45.1,39.0,30.32,NE,55,0.0,-999.0,78,-99.99,,,0.00,weatherlink.com 1.10,2013-02-13 11:11:00,
2013-02-13 03:26:00,45.0,38.0,30.31,NE,55,0.0,-999.0,77,-99.99,,,0.00,weatherlink.com 1.10,2013-02-13 11:26:00,
2013-02-13 03:41:00,44.9,39.0,30.31,NE,55,0.0,-999.0,81,-99.99,,,0.00,weatherlink.com 1.10,2013-02-13 11:41:00,
2013-02-13 03:56:00,44.4,39.0,30.31,NE,55,0.0,-999.0,81,-99.99,,,0.00,weatherlink.com 1.10,2013-02-13 11:56:00,
2013-02-13 04:11:00,44.2,39.0,30.32,NE,55,0.0,-999.0,81,-99.99,,,0.00,weatherlink.com 1.10,2013-02-13 12:11:00,
2013-02-13 04:26:00,44.1,39.0,30.32,NE,55,0.0,-999.0,81,-99.99,,,0.00,weatherlink.com 1.10,2013-02-13 12:26:00,
2013-02-13 04:41:00,44.2,39.0,30.31,NE,55,0.0,-999.0,82,-99.99,,,0.00,weatherlink.com 1.10,2013-02-13 12:41:00,
2013-02-13 04:56:00,44.5,40.0,30.31,NE,55,0.0,-999.0,85,-99.99,,,0.00,weatherlink.com 1.10,2013-02-13 12:56:00,
2013-02-13 05:11:00,43.9,40.0,30.31,NE,55,0.0,-999.0,86,-99.99,,,0.00,weatherlink.com 1.10,2013-02-13 13:11:00,
2013-02-13 05:26:00,43.7,40.0,30.31,NE,55,1.0,-999.0,86,-99.99,,,0.00,weatherlink.com 1.10,2013-02-13 13:26:00,
2013-02-13 05:41:00,44.3,41.0,30.31,NE,55,0.0,-999.0,87,-99.99,,,0.00,weatherlink.com 1.10,2013-02-13 13:41:00,
2013-02-13 05:56:00,44.6,40.0,30.31,NE,55,1.0,-999.0,85,-99.99,,,0.00,weatherlink.com 1.10,2013-02-13 13:56:00,
2013-02-13 06:11:00,43.3,40.0,30.31,NE,55,0.0,-999.0,87,-99.99,,,0.00,weatherlink.com 1.10,2013-02-13 14:11:00,
2013-02-13 06:26:00,42.7,39.0,30.31,NE,55,0.0,-999.0,88,-99.99,,,0.00,weatherlink.com 1.10,2013-02-13 14:26:00,
2013-02-13 06:41:00,42.8,40.0,30.31,NE,55,0.0,-999.0,88,-99.99,,,0.00,weatherlink.com 1.10,2013-02-13 14:41:00,
2013-02-13 06:56:00,43.4,41.0,30.32,NE,55,2.0,-999.0,90,-99.99,,,0.00,weatherlink.com 1.10,2013-02-13 14:56:00,
2013-02-13 07:11:00,43.0,40.0,30.32,NE,55,0.0,-999.0,89,-99.99,,,0.00,weatherlink.com 1.10,2013-02-13 15:11:00,
2013-02-13 07:26:00,42.5,40.0,30.33,NE,55,2.0,-999.0,91,-99.99,,,0.00,weatherlink.com 1.10,2013-02-13 15:26:00,
2013-02-13 07:41:00,42.4,40.0,30.33,NE,55,0.0,-999.0,92,-99.99,,,0.00,weatherlink.com 1.10,2013-02-13 15:41:00,
2013-02-13 07:56:00,42.2,40.0,30.33,NE,56,0.0,-999.0,92,-99.99,,,0.00,weatherlink.com 1.10,2013-02-13 15:56:00,
2013-02-13 08:11:00,42.2,40.0,30.34,NE,56,0.0,-999.0,92,-99.99,,,0.00,weatherlink.com 1.10,2013-02-13 16:11:00,
2013-02-13 08:25:00,42.8,41.0,30.34,NE,56,0.0,-999.0,93,-99.99,,,0.00,weatherlink.com 1.10,2013-02-13 16:25:00,
2013-02-13 08:40:00,43.2,41.0,30.34,NE,56,0.0,-999.0,93,-99.99,,,0.00,weatherlink.com 1.10,2013-02-13 16:40:00,
2013-02-13 08:55:00,44.7,43.0,30.33,NE,56,0.0,-999.0,94,-99.99,,,0.00,weatherlink.com 1.10,2013-02-13 16:55:00,
2013-02-13 09:10:00,45.0,43.0,30.33,ENE,59,0.0,-999.0,93,-99.99,,,0.00,weatherlink.com 1.10,2013-02-13 17:10:00,
2013-02-13 09:25:00,45.4,43.0,30.34,ENE,75,0.0,-999.0,92,-99.99,,,0.00,weatherlink.com 1.10,2013-02-13 17:25:00,
2013-02-13 09:40:00,46.5,44.0,30.34,East,90,2.0,-999.0,91,-99.99,,,0.00,weatherlink.com 1.10,2013-02-13 17:40:00,
2013-02-13 09:56:00,46.4,44.0,30.34,East,98,1.0,-999.0,90,-99.99,,,0.00,weatherlink.com 1.10,2013-02-13 17:56:00,
2013-02-13 10:11:00,46.6,44.0,30.34,East,100,0.0,-999.0,89,-99.99,,,0.00,weatherlink.com 1.10,2013-02-13 18:11:00,
2013-02-13 10:26:00,47.8,45.0,30.34,ESE,104,0.0,-999.0,88,-99.99,,,0.00,weatherlink.com 1.10,2013-02-13 18:26:00,
2013-02-13 10:41:00,49.7,45.0,30.34,ESE,117,0.0,-999.0,85,-99.99,,,0.00,weatherlink.com 1.10,2013-02-13 18:41:00,
2013-02-13 10:56:00,50.8,46.0,30.34,SE,143,0.0,-999.0,82,-99.99,,,0.00,weatherlink.com 1.10,2013-02-13 18:56:00,
2013-02-13 11:11:00,52.3,46.0,30.34,ESE,118,3.0,-999.0,79,-99.99,,,0.00,weatherlink.com 1.10,2013-02-13 19:11:00,
2013-02-13 11:26:00,53.1,45.0,30.33,ESE,103,0.0,-999.0,75,-99.99,,,0.00,weatherlink.com 1.10,2013-02-13 19:26:00,
2013-02-13 11:41:00,53.7,45.0,30.32,ESE,107,0.0,-999.0,72,-99.99,,,0.00,weatherlink.com 1.10,2013-02-13 19:41:00,
2013-02-13 11:56:00,54.6,46.0,30.32,ESE,109,0.0,-999.0,72,-99.99,,,0.00,weatherlink.com 1.10,2013-02-13 19:56:00,
2013-02-13 12:11:00,54.6,47.0,30.31,ESE,103,0.0,-999.0,75,-99.99,,,0.00,weatherlink.com 1.10,2013-02-13 20:11:00,
2013-02-13 12:26:00,55.0,46.0,30.30,ESE,107,4.0,-999.0,73,-99.99,,,0.00,weatherlink.com 1.10,2013-02-13 20:26:00,
2013-02-13 12:41:00,55.4,47.0,30.30,East,94,0.0,-999.0,73,-99.99,,,0.00,weatherlink.com 1.10,2013-02-13 20:41:00,
2013-02-13 12:56:00,56.8,48.0,30.29,ESE,105,1.0,-999.0,73,-99.99,,,0.00,weatherlink.com 1.10,2013-02-13 20:56:00,
2013-02-13 13:11:00,56.4,47.0,30.28,ESE,105,1.0,-999.0,72,-99.99,,,0.00,weatherlink.com 1.10,2013-02-13 21:11:00,
2013-02-13 13:26:00,56.4,47.0,30.27,ESE,110,2.0,-999.0,71,-99.99,,,0.00,weatherlink.com 1.10,2013-02-13 21:26:00,
2013-02-13 13:41:00,56.5,45.0,30.26,East,101,2.0,-999.0,66,-99.99,,,0.00,weatherlink.com 1.10,2013-02-13 21:41:00,
2013-02-13 13:56:00,57.5,46.0,30.26,East,86,2.0,-999.0,65,-99.99,,,0.00,weatherlink.com 1.10,2013-02-13 21:56:00,
2013-02-13 14:11:00,58.3,46.0,30.25,ESE,111,4.0,-999.0,63,-99.99,,,0.00,weatherlink.com 1.10,2013-02-13 22:11:00,
2013-02-13 14:26:00,58.7,46.0,30.24,ENE,78,0.0,-999.0,62,-99.99,,,0.00,weatherlink.com 1.10,2013-02-13 22:26:00,
2013-02-13 14:41:00,62.0,46.0,30.24,SW,234,2.0,-999.0,57,-99.99,,,0.00,weatherlink.com 1.10,2013-02-13 22:41:00,
2013-02-13 14:56:00,64.8,47.0,30.23,SW,236,0.0,-999.0,52,-99.99,,,0.00,weatherlink.com 1.10,2013-02-13 22:56:00,
2013-02-13 15:11:00,65.1,46.0,30.23,WSW,243,0.0,-999.0,50,-99.99,,,0.00,weatherlink.com 1.10,2013-02-13 23:11:00,
2013-02-13 15:26:00,64.5,46.0,30.23,SW,236,0.0,-999.0,51,-99.99,,,0.00,weatherlink.com 1.10,2013-02-13 23:26:00,
2013-02-13 15:41:00,61.8,46.0,30.23,SSE,167,0.0,-999.0,56,-99.99,,,0.00,weatherlink.com 1.10,2013-02-13 23:41:00,
2013-02-13 15:56:00,61.2,44.0,30.23,SSW,192,0.0,-999.0,53,-99.99,,,0.00,weatherlink.com 1.10,2013-02-13 23:56:00,
2013-02-13 16:11:00,60.3,43.0,30.23,SSW,198,0.0,-999.0,54,-99.99,,,0.00,weatherlink.com 1.10,2013-02-14 00:11:00,
2013-02-13 16:26:00,60.8,44.0,30.23,SSW,205,2.0,-999.0,54,-99.99,,,0.00,weatherlink.com 1.10,2013-02-14 00:26:00,
2013-02-13 16:41:00,60.6,42.0,30.22,SSW,192,0.0,-999.0,51,-99.99,,,0.00,weatherlink.com 1.10,2013-02-14 00:41:00,
2013-02-13 16:56:00,60.0,44.0,30.22,SSW,198,2.0,-999.0,55,-99.99,,,0.00,weatherlink.com 1.10,2013-02-14 00:56:00,
2013-02-13 17:11:00,57.1,41.0,30.22,WNW,287,0.0,-999.0,55,-99.99,,,0.00,weatherlink.com 1.10,2013-02-14 01:11:00,
2013-02-13 17:26:00,55.4,40.0,30.21,West,275,2.0,-999.0,57,-99.99,,,0.00,weatherlink.com 1.10,2013-02-14 01:26:00,
2013-02-13 17:41:00,54.9,39.0,30.21,West,276,4.0,-999.0,55,-99.99,,,0.00,weatherlink.com 1.10,2013-02-14 01:41:00,
2013-02-13 17:56:00,54.0,39.0,30.21,WNW,285,2.0,-999.0,58,-99.99,,,0.00,weatherlink.com 1.10,2013-02-14 01:56:00,
2013-02-13 18:11:00,53.3,38.0,30.21,West,268,0.0,-999.0,56,-99.99,,,0.00,weatherlink.com 1.10,2013-02-14 02:11:00,
2013-02-13 18:26:00,52.9,40.0,30.21,West,270,3.0,-999.0,61,-99.99,,,0.00,weatherlink.com 1.10,2013-02-14 02:26:00,
2013-02-13 18:41:00,53.0,39.0,30.21,West,271,1.0,-999.0,60,-99.99,,,0.00,weatherlink.com 1.10,2013-02-14 02:41:00,
2013-02-13 18:56:00,52.9,38.0,30.21,West,271,0.0,-999.0,58,-99.99,,,0.00,weatherlink.com 1.10,2013-02-14 02:56:00,
2013-02-13 19:11:00,52.3,38.0,30.21,West,270,0.0,-999.0,59,-99.99,,,0.00,weatherlink.com 1.10,2013-02-14 03:11:00,
2013-02-13 19:26:00,51.5,38.0,30.21,West,269,0.0,-999.0,61,-99.99,,,0.00,weatherlink.com 1.10,2013-02-14 03:26:00,
2013-02-13 19:41:00,50.8,39.0,30.22,West,269,0.0,-999.0,64,-99.99,,,0.00,weatherlink.com 1.10,2013-02-14 03:41:00,
2013-02-13 19:56:00,50.5,39.0,30.22,West,269,0.0,-999.0,66,-99.99,,,0.00,weatherlink.com 1.10,2013-02-14 03:56:00,
2013-02-13 20:11:00,50.0,41.0,30.23,West,269,0.0,-999.0,72,-99.99,,,0.00,weatherlink.com 1.10,2013-02-14 04:11:00,
2013-02-13 20:41:00,49.8,41.0,30.23,West,271,0.0,-999.0,71,-99.99,,,0.00,weatherlink.com 1.10,2013-02-14 04:41:00,
2013-02-13 20:57:00,49.7,42.0,30.22,West,270,0.0,-999.0,74,-99.99,,,0.00,weatherlink.com 1.10,2013-02-14 04:57:00,
2013-02-13 21:11:00,50.0,42.0,30.22,West,271,0.0,-999.0,73,-99.99,,,0.00,weatherlink.com 1.10,2013-02-14 05:11:00,
2013-02-13 21:26:00,49.9,41.0,30.22,West,271,0.0,-999.0,71,-99.99,,,0.00,weatherlink.com 1.10,2013-02-14 05:26:00,
2013-02-13 21:41:00,49.6,41.0,30.23,West,271,0.0,-999.0,71,-99.99,,,0.00,weatherlink.com 1.10,2013-02-14 05:41:00,
2013-02-13 21:56:00,49.6,41.0,30.22,West,271,0.0,-999.0,72,-99.99,,,0.00,weatherlink.com 1.10,2013-02-14 05:56:00,
2013-02-13 22:11:00,47.8,41.0,30.22,West,270,0.0,-999.0,76,-99.99,,,0.00,weatherlink.com 1.10,2013-02-14 06:11:00,
2013-02-13 22:26:00,47.3,40.0,30.23,West,271,3.0,-999.0,77,-99.99,,,0.00,weatherlink.com 1.10,2013-02-14 06:26:00,
2013-02-13 22:41:00,47.9,40.0,30.23,West,281,0.0,-999.0,75,-99.99,,,0.00,weatherlink.com 1.10,2013-02-14 06:41:00,
2013-02-13 22:56:00,47.7,40.0,30.22,West,281,0.0,-999.0,76,-99.99,,,0.00,weatherlink.com 1.10,2013-02-14 06:56:00,
2013-02-13 23:11:00,46.9,40.0,30.23,West,281,0.0,-999.0,76,-99.99,,,0.00,weatherlink.com 1.10,2013-02-14 07:11:00,
2013-02-13 23:26:00,46.2,40.0,30.22,West,281,0.0,-999.0,78,-99.99,,,0.00,weatherlink.com 1.10,2013-02-14 07:26:00,
2013-02-13 23:41:00,46.5,40.0,30.22,West,281,0.0,-999.0,77,-99.99,,,0.00,weatherlink.com 1.10,2013-02-14 07:41:00,
2013-02-13 23:56:00,46.4,40.0,30.22,West,281,0.0,-999.0,79,-99.99,,,0.00,weatherlink.com 1.10,2013-02-14 07:56:00,